Location: Mercogliano
(40.9167°N, 14.7333°E)
Time: 08:13:02
(UTC+00:00)

Cosmos 2150 Rocket - Pass Details

Date: 25 January 2021
Orbit: 748 x 808 km, 74.0° (Epoch: 04 March)

Event Time Altitude Azimuth Distance (km) Brightness Sun altitude
Exits shadow 05:39:20 - 331° (NNW) 3,302 6.8 -7.6°
Rises 05:39:24 0° 331° (NNW) 3,280 6.8 -7.5°
Reaches altitude 10° 05:41:58 10° 322° (NW) 2,356 6.0 -7.1°
Maximum altitude 05:46:44 34° 259° (W) 1,295 4.8 -6.2°
Drops below altitude 10° 05:51:33 10° 196° (SSW) 2,371 6.6 -5.4°
Sets 05:54:09 0° 187° (S) 3,303 7.5 -4.9°
